DW7779 Weather Reports


time (UTC)temp
F
wind
direction
speed
knots
gust
knots
rain 1hr
in
rain 24hr
in
rain mn
in
humidity
%
barometer
mb
20260510094526 56 0.0 1.7 0.00 0.00 0.00 89 1030.8
20260510093020 56 0.0 0.9 0.00 0.00 0.00 90 1030.7
20260510091524 56 0.0 0.9 0.00 0.00 0.00 90 1030.6
20260510090025 56 0.0 0.0 0.00 0.00 0.00 89 1030.5
20260510084519 56 0.0 0.0 0.00 0.00 0.00 89 1030.4
20260510083023 56 0.0 0.9 0.00 0.00 0.00 89 1030.4
20260510081518 56 0.0 0.9 0.00 0.00 0.00 88 1030.2
20260510080026 57 0.0 0.9 0.00 0.00 0.00 88 1030.0
20260510074517 57 0.0 0.9 0.00 0.00 0.00 88 1029.9
20260510073016 57 0.0 0.9 0.00 0.00 0.00 88 1029.7
20260510071521 57 0.0 1.7 0.00 0.00 0.00 87 1029.7
20260510070016 58 0.0 1.7 0.00 0.00 0.00 86 1029.7
20260510064519 58 0.0 2.6 0.00 0.00 0.00 85 1029.6
20260510063014 58 0.0 3.5 0.00 0.00 0.00 85 1029.5
20260510061513 59 0.9 4.3 0.00 0.00 0.00 83 1029.5
20260510060013 59 0.0 2.6 0.00 0.00 0.00 83 1029.5
20260510054512 59 0.0 3.5 0.00 0.00 0.00 83 1029.3
20260510053011 59 0.9 3.5 0.00 0.00 0.00 84 1029.3
20260510051511 60 0.0 3.5 0.00 0.00 0.00 80 1029.3
20260510050014 60 0.0 3.5 0.00 0.00 0.00 78 1029.1
20260510044511 61 0.9 4.3 0.00 0.00 0.00 76 1029.0
20260510043009 61 0.0 0.9 0.00 0.00 0.00 73 1029.1
20260510041509 61 0.0 1.7 0.00 0.00 0.00 71 1029.1
20260510040010 61 0.0 1.7 0.00 0.00 0.00 72 1029.1
20260510034504 60 0.0 1.7 0.00 0.00 0.00 75 1029.2
20260510033004 60 0.0 1.7 0.00 0.00 0.00 74 1029.3
20260510031503 60 0.0 2.6 0.00 0.00 0.00 73 1029.4
20260510030003 60 0.0 2.6 0.00 0.00 0.00 74 1029.5
20260510024502 60 0.0 3.5 0.00 0.00 0.00 74 1029.7
20260510023002 60 0.0 5.2 0.00 0.00 0.00 76 1029.9
20260510021601 61 0.0 2.6 0.00 0.00 0.00 74 1030.1
20260510020059 61 0.0 2.6 0.00 0.00 0.00 73 1030.3
20260510014557 60 0.0 2.6 0.00 0.00 0.00 72 1030.5
20260510013056 60 0.9 3.5 0.00 0.00 0.00 74 1030.6
20260510011558 60 0.0 2.6 0.00 0.00 0.00 74 1030.6
20260510010058 60 0.0 1.7 0.00 0.00 0.00 75 1030.7
20260510004548 59 0.0 0.9 0.00 0.00 0.00 75 1030.7
20260510003047 58 0.9 3.5 0.00 0.00 0.00 83 1030.8
20260510001545 57 0.0 0.0 0.00 0.00 0.00 89 1030.9
20260510000058 56 0.0 0.9 0.00 0.00 0.00 94 1030.9
20260509234548 55 0.0 1.7 0.00 0.00 0.00 96 1030.8
20260509233035 54 0.0 1.7 0.00 0.00 0.00 97 1030.8
20260509231533 54 0.9 1.7 0.00 0.00 0.00 97 1030.8
20260509230036 53 0.0 1.7 0.00 0.00 0.00 97 1030.9
20260509224530 53 0.0 0.9 0.00 0.00 0.00 97 1030.7
20260509223030 52 0.0 0.9 0.00 0.00 0.00 97 1030.6
20260509221528 52 0.0 0.0 0.00 0.00 0.00 97 1030.6
20260509220027 52 0.0 0.9 0.00 0.00 0.00 97 1030.3
20260509214625 52 0.0 0.0 0.00 0.00 0.00 97 1030.1
20260509213024 52 0.0 0.0 0.00 0.00 0.00 97 1029.8
20260509211520 52 0.0 0.9 0.00 0.00 0.00 97 1029.7
20260509210021 51 0.0 0.0 0.00 0.00 0.00 97 1029.7
20260509204524 51 0.0 0.0 0.00 0.00 0.00 97 1029.5
20260509203016 50 0.0 0.0 0.00 0.00 0.00 96 1029.3
20260509201513 51 0.0 0.0 0.00 0.00 0.00 96 1029.2
20260509200011 51 0.0 0.0 0.00 0.00 0.00 96 1029.1
20260509194509 51 0.0 0.0 0.00 0.00 0.00 96 1029.0
20260509193006 52 0.0 0.9 0.00 0.00 0.00 96 1028.7
20260509191505 52 0.0 0.0 0.00 0.00 0.00 96 1028.4
20260509190001 53 0.0 1.7 0.00 0.00 0.00 96 1028.4
20260509184607 53 0.0 0.9 0.00 0.00 0.00 96 1028.3
20260509183100 53 0.9 1.7 0.00 0.00 0.00 96 1028.2
20260509181621 53 0.0 0.0 0.00 0.00 0.00 96 1028.1
20260509174559 53 0.0 0.9 0.00 0.00 0.00 95 1028.0
20260509173104 53 0.0 0.0 0.00 0.00 0.00 95 1028.0
20260509171555 53 0.0 0.0 0.00 0.00 0.00 95 1028.1
20260509170054 53 0.0 0.9 0.00 0.00 0.00 95 1028.1
20260509164553 54 0.0 0.0 0.00 0.00 0.00 95 1028.3
20260509163052 54 0.0 0.0 0.00 0.00 0.00 95 1028.2
20260509161549 54 0.0 0.0 0.00 0.00 0.00 94 1028.3
20260509160049 54 0.0 0.0 0.00 0.00 0.00 94 1028.3
20260509154548 54 0.0 0.0 0.00 0.00 0.00 94 1028.3
20260509153051 54 0.0 0.0 0.00 0.00 0.00 94 1028.2
20260509151552 54 0.0 0.0 0.00 0.00 0.00 94 1028.4
20260509150046 54 0.0 0.0 0.00 0.00 0.00 94 1028.4
20260509144601 54 0.0 0.0 0.00 0.00 0.00 94 1028.4
20260509143049 54 0.0 0.0 0.00 0.00 0.00 94 1028.4
20260509141542 54 0.0 0.0 0.00 0.00 0.00 93 1028.5
20260509140040 54 0.0 0.0 0.00 0.00 0.00 93 1028.4
20260509134559 54 0.0 0.0 0.00 0.00 0.00 93 1028.3
20260509133045 54 0.0 0.0 0.00 0.00 0.00 94 1028.4
20260509131539 54 0.0 0.0 0.00 0.00 0.00 93 1028.3
20260509130051 54 0.0 0.0 0.00 0.00 0.00 93 1028.3
20260509124538 54 0.0 0.0 0.00 0.00 0.00 92 1028.3
20260509123040 54 0.0 0.0 0.00 0.00 0.00 92 1028.5
20260509121544 55 0.0 1.7 0.00 0.00 0.00 91 1028.4
20260509120035 55 0.0 0.0 0.00 0.00 0.00 92 1028.3
20260509114537 55 0.0 0.0 0.00 0.00 0.00 93 1028.3
20260509113037 55 0.0 0.0 0.00 0.00 0.00 93 1028.1
20260509111531 55 0.0 0.0 0.00 0.00 0.00 93 1028.0
20260509110034 55 0.0 0.0 0.00 0.00 0.00 93 1028.0
20260509104539 55 0.0 0.0 0.00 0.00 0.00 93 1027.9
20260509103028 55 0.0 0.0 0.00 0.00 0.00 94 1027.8
20260509101536 55 0.0 0.0 0.00 0.00 0.00 94 1027.8
20260509100029 55 0.0 0.0 0.00 0.00 0.00 94 1027.7